{"data":{"norad_id":53234,"intl_designator":"2022-084AX","name":"STARLINK-4368","alt_names":[],"object_type":"PAYLOAD","status":"ACTIVE","operator":null,"country":"US","launch_date":"2022-07-22","launch_site_code":"AFWTR","launch_vehicle":null,"mission":null,"orbit_class":"UNKNOWN","rcs_meters":null,"size_class":null,"mass_kg":null,"dimensions":null,"purposes":["comms"],"wikipedia_slug":null,"has_3d_model":false,"image_url":null,"decayed_at":null,"tle_current":{"epoch":"2026-05-25T02:42:09.440928Z","epoch_age_seconds":58691,"freshness":"FRESH","line1":"1 53234U 22084AX  26145.11260927  .00058177  00000+0  22818-2 0  9999","line2":"2 53234  97.6008 205.9019 0001812  67.5797 292.5633 15.25531108211856","mean_motion":15.25531108,"eccentricity":0.0001812,"inclination_deg":97.6008,"raan_deg":205.9019,"arg_perigee_deg":67.5797,"mean_anomaly_deg":292.5633,"bstar":0.0022818,"rev_number":21185,"period_min":94.393355366438,"perigee_km":487.94672146923,"apogee_km":490.4354411659,"semimajor_km":6867.3280813176,"source":"CELESTRAK","updated_at":"2026-05-25T13:38:17.359245Z"}}}